Hourly Data Report for January 13, 2017

All times are specified in Local Standard Time (LST). Add 1 hour to adjust for Daylight Saving Time where and when it is observed.

ST LEONARD CS
NEW BRUNSWICK

47°09'28.050" N
67°49'55.014" W
245.00 m
810I001
71019
WIY

Download Data

Hourly Data (January 2017)
Hourly Data Report for January 13, 2017
Temp Definition
°C
Dew Point Temp Definition
°C
Rel Hum Definition
%
Wind Dir Definition
10's deg

Wind Spd Definition
km/h
Visibility Definition
km
Stn Press Definition
kPa
Hmdx Definition


Wind Chill Definition


Weather Definition


TIME
00:00 3.9 3.7 99 23 6   97.53     LegendNANA
01:00 3.7 3.5 99 23 10   97.57     LegendNANA
02:00 1.0 1.0 100 31 13   97.67     LegendNANA
03:00 0.1 0.0 100 30 17   97.76     LegendNANA
04:00 -0.4 -0.6 99 30 9   97.84   -4 LegendNANA
05:00 -0.3 -0.6 98 25 6   97.90   -2 LegendNANA
06:00 1.2 0.0 92 26 9   97.98     LegendNANA
07:00 0.7 -2.3 80 26 30   98.13     LegendNANA
08:00 -0.5 -5.0 71 28 30   98.21   -7 LegendNANA
09:00 -2.2 -7.7 66 28 35   98.40   -10 LegendNANA
10:00 -4.8 -5.4 96 27 31   98.56   -13 LegendNANA
11:00 -5.3 -11.8 60 30 32   98.61   -14 LegendNANA
12:00 -5.0 -13.2 53 29 41   98.64   -14 LegendNANA
13:00 -6.6 -9.1 82 28 34   98.71   -16 LegendNANA
14:00 -8.1 -8.9 94 29 36   98.85   -18 LegendNANA
15:00 -9.5 -11.2 87 31 38   99.05   -20 LegendNANA
16:00 -9.8 -15.4 64 31 41   99.22   -21 LegendNANA
17:00 -11.2 -16.8 63 30 37   99.40   -22 LegendNANA
18:00 -13.0 -19.4 59 30 39   99.58   -25 LegendNANA
19:00 -13.9 -20.0 60 30 29   99.72   -24 LegendNANA
20:00 -14.9 -21.1 60 30 41   99.86   -27 LegendNANA
21:00 -15.7 -22.3 57 30 37   100.02   -28 LegendNANA
22:00 -17.0 -22.9 60 30 37   100.08   -30 LegendNANA
23:00 -17.5 -22.9 63 30 32   100.15   -30 LegendNANA

Notes on Data Quality.

Legend

  • E = Estimated
  • M = Missing
  • NA = Not Available
  • ‡ = Partner data that is not subject to review by the National Climate Archives
Date modified: